Vorticity
10 11 11 5 6 7 11 9 14 15 13 16 16 11 10 10 16 14 16 18 12 7 11 6 1 13 22 4 24 24 -0 13 9 24 28 3 18 21 13 27 14 0 15 16 24 16 19 29 12 12 30 12 2 -1
8 6 8 9 7 4 13 9 10 8 17 17 11 11 11 14 16 12 13 15 12 13 6 8 44 22 15 9 3 11 54 -10 24 35 21 10 32 24 9 15 40 31 -1 2 -33 -27 -13 -26 8 5 27 23 18 9
10 17 12 10 13 7 11 17 8 14 17 12 21 12 10 15 11 9 12 13 12 17 23 12 16 28 9 31 6 18 29 15 -37 -0 2 4 15 4 11 16 21 15 21 -4 10 32 5 -4 0 4 10 7 8 0
13 12 9 14 11 19 16 5 15 11 11 18 20 1 35 8 9 10 8 12 6 8 29 2 9 9 25 24 25 10 -6 4 24 23 13 8 -1 10 13 -15 34 20 19 8 10 1 8 33 -1 40 14 13 10 27
12 4 10 12 17 15 6 16 13 20 14 20 16 39 6 9 13 12 12 9 9 12 -10 0 12 -1 16 12 5 18 10 7 -1 0 4 4 17 24 7 21 -3 13 9 1 -4 45 15 92 15 4 13 -0 6 7
11 13 8 25 6 7 9 15 21 17 12 18 9 3 3 8 13 9 14 16 11 7 6 8 12 4 19 9 13 14 16 9 -0 4 1 5 -9 -2 -1 8 17 16 21 18 -11 -16 55 -38 15 2 10 23 -19 60
9 12 16 9 13 11 14 16 11 10 10 6 7 5 6 6 9 9 -1 16 23 16 9 24 28 20 17 21 15 17 3 5 6 20 3 9 14 -11 13 3 2 10 15 8 29 -4 18 6 -10 8 9 32 65 39
11 10 19 13 11 10 18 12 11 8 7 5 7 5 7 9 8 15 6 7 1 11 16 12 6 13 10 19 9 10 8 16 8 4 9 8 18 17 28 14 13 19 19 16 15 11 -2 9 11 -5 46 43 16 5
10 14 20 5 12 9 19 10 9 8 4 10 2 16 17 16 13 14 10 10 11 5 -3 6 1 10 27 23 13 0 -2 8 11 3 6 14 1 -18 -8 18 15 14 4 3 21 8 10 4 -6 54 29 21 4 8
15 15 18 8 11 9 18 8 9 7 6 6 11 10 13 10 16 12 11 10 14 19 2 1 -4 -4 -6 18 23 17 28 26 8 14 61 30 3 18 20 13 14 7 -9 11 9 15 23 27 62 23 7 7 8 14
14 11 16 8 10 10 17 8 10 8 6 5 11 8 9 19 11 9 9 12 13 15 29 18 27 17 -9 3 13 2 9 11 24 35 15 22 21 28 41 34 37 17 -7 7 14 10 22 36 -3 8 17 14 9 11
26 9 10 8 10 12 16 7 5 4 5 7 11 7 1 10 12 7 16 17 4 16 4 -3 17 30 32 20 -2 10 12 27 4 18 8 16 29 40 19 20 45 42 13 15 17 23 21 21 6 21 14 3 12 10
26 13 9 7 11 16 16 4 7 6 12 16 1 13 17 15 10 1 23 10 2 -7 -4 10 2 28 23 18 9 17 13 13 21 10 10 9 -4 2 37 14 29 21 8 -4 45 19 14 9 10 11 13 14 12 9
25 16 11 11 10 20 17 4 3 12 11 2 20 1 2 10 13 9 7 -4 6 23 6 5 47 26 18 19 8 8 15 8 13 11 7 5 8 14 21 8 18 33 27 15 7 1 3 7 13 17 12 9 10 10
23 17 11 14 10 19 15 9 11 8 1 -5 9 16 18 3 4 0 -10 17 28 10 1 19 29 28 13 3 17 8 13 12 10 2 -7 5 18 33 18 19 25 13 11 11 6 2 12 15 14 16 10 9 11 10
11 12 6 14 11 15 7 12 3 6 -4 -13 8 -3 -4 9 12 7 2 -8 35 12 13 19 16 14 16 12 12 10 11 7 -2 9 7 -3 20 23 35 16 9 13 12 8 3 10 13 12 13 12 13 12 10 9
8 13 14 9 10 13 7 8 5 4 -12 5 -3 9 7 8 7 11 1 -0 27 21 18 16 14 9 5 15 12 14 2 -0 -10 10 13 12 35 31 -6 -1 15 12 6 5 11 16 15 13 10 9 9 9 9 9
6 15 17 10 8 7 11 5 -2 0 6 1 0 10 4 2 10 -0 7 23 23 23 14 4 2 9 3 7 1 -6 -3 8 10 11 8 19 34 26 27 11 12 6 5 12 13 12 11 9 8 9 9 10 10 9
17 16 13 9 4 11 12 5 -22 6 6 19 21 20 20 15 1 22 16 7 17 19 10 13 12 15 13 4 4 -4 -1 36 23 13 12 25 28 26 17 10 5 4 8 9 11 10 9 9 10 9 10 9 10 9
13 17 17 4 -8 21 -5 3 3 -0 5 -10 14 23 21 9 7 8 12 14 17 16 12 9 7 5 3 -9 2 -7 -6 39 20 10 22 31 25 24 12 6 3 4 7 9 12 9 8 8 8 9 8 9 9 8
7 12 13 7 2 -12 -0 -9 -19 13 15 8 5 -5 0 11 13 12 14 17 23 11 3 18 14 11 11 15 6 -0 -4 30 20 19 27 26 25 18 10 5 2 3 4 8 9 8 8 8 8 9 7 8 8 9
13 3 3 4 0 1 4 8 10 7 14 -3 11 19 16 17 18 15 15 8 14 27 29 20 7 9 16 20 17 10 1 26 23 20 23 23 21 16 11 4 4 5 5 7 9 9 9 8 7 7 8 9 9 9
7 8 1 4 6 10 12 17 16 20 16 3 1 10 13 13 12 5 16 -7 6 16 21 22 18 15 20 10 10 7 3 17 24 20 19 16 16 14 9 6 6 6 6 8 11 9 7 6 7 9 10 9 9 11
7 32 20 19 17 5 4 -1 4 9 8 9 7 4 16 11 12 15 12 13 24 13 15 17 13 11 11 14 12 8 12 10 22 17 19 14 11 10 9 9 8 7 9 11 9 8 6 10 10 10 12 13 12 10
7 27 10 23 13 16 16 11 9 9 6 21 8 7 12 15 5 16 21 26 19 18 27 16 11 6 5 8 16 12 17 11 19 17 16 12 10 8 8 8 10 11 11 7 7 9 10 12 15 12 10 10 10 9
13 20 4 7 9 19 13 9 5 7 5 8 23 16 8 11 26 4 5 16 16 18 19 17 16 17 16 9 14 11 16 16 16 15 12 12 12 11 10 9 10 9 7 10 9 16 14 10 10 9 9 8 7 7
12 0 6 8 8 8 12 11 8 10 11 22 12 2 35 20 24 7 13 11 -1 1 5 13 26 22 21 20 14 15 17 20 16 13 10 9 8 11 11 9 8 8 7 18 16 10 9 7 7 6 5 5 7 10
14 7 4 6 14 13 11 12 11 23 35 -2 25 14 11 -5 -11 -11 -8 -6 -5 2 4 -1 13 22 19 22 24 18 15 16 16 15 14 12 10 10 9 7 6 20 19 11 9 7 4 4 4 4 5 7 13 15
8 9 8 7 5 5 7 10 10 9 -4 15 12 7 4 1 2 6 9 8 9 11 9 16 2 15 19 20 19 16 14 12 10 9 9 7 8 10 21 26 18 11 10 9 5 4 4 6 5 6 8 14 12 10
6 4 5 10 11 14 24 10 2 0 -2 2 6 6 6 8 10 13 14 10 7 10 17 15 17 6 13 17 14 13 14 12 8 15 19 17 20 19 14 11 10 9 6 5 4 5 7 6 6 7 8 11 11 11
16 16 16 16 14 18 10 12 15 16 16 20 24 29 24 31 25 16 13 20 24 19 9 15 20 16 15 11 11 7 6 3 20 14 12 19 17 13 11 10 7 5 5 5 6 8 7 7 8 7 7 9 12 14
19 12 13 13 15 19 14 15 18 16 14 14 18 21 16 12 17 22 19 15 18 25 28 16 14 24 16 20 16 12 8 15 14 13 15 16 13 12 9 6 4 5 5 5 8 8 7 8 7 7 7 11 13 16
14 13 15 20 16 15 -2 6 12 17 24 18 36 38 37 29 21 21 20 14 10 6 11 22 14 12 21 25 21 15 11 14 14 14 14 13 12 9 8 7 7 6 6 7 8 8 8 8 7 8 10 13 14 15
Height
2921 2923 2925 2927 2929 2931 2933 2935 2937 2938 2940 2942 2945 2947 2950 2952 2955 2956 2957 2960 2962 2960 2959 2961 2963 2964 2965 2966 2965 2963 2970 2966 2967 2966 2964 2963 2964 2964 2968 2969 2969 2972 2972 2968 2967 2964 2968 2966 2970 2971 2970 2970 2968 2967
2915 2917 2919 2921 2923 2925 2927 2929 2931 2933 2934 2936 2939 2942 2945 2947 2950 2952 2953 2955 2956 2954 2950 2952 2952 2954 2956 2956 2955 2954 2956 2961 2959 2959 2957 2959 2960 2960 2961 2957 2961 2962 2964 2962 2964 2958 2958 2961 2964 2963 2962 2964 2961 2962
2909 2911 2913 2915 2917 2919 2921 2924 2926 2927 2928 2931 2933 2937 2940 2943 2946 2948 2949 2950 2949 2947 2946 2946 2946 2948 2946 2945 2946 2946 2952 2951 2953 2953 2955 2956 2955 2957 2955 2953 2953 2954 2957 2955 2952 2947 2953 2956 2958 2956 2954 2957 2957 2957
2903 2905 2907 2909 2911 2913 2916 2919 2920 2922 2924 2926 2929 2933 2936 2940 2943 2944 2945 2946 2945 2944 2940 2942 2942 2940 2940 2940 2943 2945 2946 2946 2947 2947 2950 2951 2951 2950 2949 2949 2949 2948 2948 2947 2943 2942 2946 2945 2949 2945 2941 2950 2952 2951
2897 2900 2902 2904 2905 2908 2912 2914 2916 2918 2921 2924 2927 2930 2934 2937 2940 2940 2940 2941 2942 2944 2940 2937 2937 2937 2937 2938 2939 2940 2942 2943 2942 2945 2945 2945 2946 2947 2944 2945 2940 2945 2942 2940 2938 2939 2937 2934 2942 2944 2942 2943 2946 2944
2892 2894 2897 2899 2902 2905 2908 2911 2913 2916 2918 2922 2926 2929 2932 2934 2936 2937 2937 2939 2939 2939 2939 2935 2935 2934 2935 2935 2936 2936 2938 2940 2940 2940 2939 2939 2941 2943 2936 2932 2934 2935 2937 2935 2933 2931 2921 2930 2936 2937 2936 2933 2934 2936
2886 2889 2892 2895 2898 2902 2905 2908 2912 2916 2919 2922 2925 2927 2930 2932 2933 2934 2936 2936 2937 2937 2937 2935 2930 2931 2931 2933 2933 2933 2935 2935 2936 2935 2932 2933 2934 2936 2928 2920 2924 2927 2928 2930 2927 2926 2927 2927 2928 2927 2926 2924 2924 2927
2880 2884 2887 2891 2895 2899 2903 2907 2910 2914 2918 2921 2924 2926 2928 2929 2929 2931 2932 2933 2934 2935 2935 2933 2928 2928 2928 2928 2930 2931 2931 2932 2930 2929 2927 2926 2926 2926 2917 2912 2917 2919 2921 2922 2923 2918 2919 2921 2921 2920 2917 2918 2920 2924
2874 2879 2883 2888 2892 2897 2901 2906 2909 2914 2917 2920 2923 2924 2925 2926 2927 2930 2931 2932 2932 2935 2930 2926 2926 2925 2924 2923 2924 2925 2926 2925 2925 2920 2919 2921 2915 2908 2905 2908 2910 2912 2914 2915 2916 2911 2914 2915 2915 2913 2915 2918 2921 2923
2868 2873 2879 2885 2889 2894 2899 2904 2909 2913 2917 2919 2921 2922 2924 2925 2927 2929 2930 2929 2927 2927 2922 2918 2921 2920 2918 2920 2921 2923 2921 2920 2915 2909 2912 2905 2895 2896 2898 2900 2903 2906 2907 2909 2907 2907 2910 2910 2910 2911 2915 2917 2919 2922
2862 2869 2875 2882 2887 2892 2898 2904 2908 2913 2916 2917 2919 2921 2923 2924 2925 2926 2926 2925 2922 2918 2914 2913 2914 2914 2916 2915 2916 2917 2915 2913 2908 2904 2900 2894 2887 2889 2889 2886 2888 2894 2900 2901 2901 2902 2904 2905 2908 2911 2912 2915 2918 2922
2856 2865 2872 2879 2885 2891 2897 2903 2908 2912 2915 2918 2920 2922 2922 2923 2924 2924 2921 2920 2917 2914 2910 2909 2909 2909 2910 2912 2911 2910 2909 2907 2900 2898 2894 2888 2885 2882 2882 2882 2881 2885 2891 2894 2895 2897 2899 2904 2907 2909 2912 2914 2918 2921
2852 2862 2871 2878 2885 2891 2897 2903 2909 2913 2915 2919 2921 2921 2921 2921 2920 2918 2914 2913 2911 2908 2906 2905 2904 2903 2904 2905 2905 2906 2902 2898 2896 2893 2889 2885 2883 2882 2880 2879 2879 2882 2885 2889 2892 2896 2899 2902 2905 2908 2910 2914 2918 2921
2851 2862 2871 2879 2886 2891 2897 2904 2909 2913 2917 2919 2920 2918 2917 2915 2913 2912 2912 2909 2908 2905 2902 2900 2897 2898 2898 2899 2900 2899 2896 2894 2892 2889 2885 2883 2883 2881 2880 2879 2880 2881 2885 2889 2892 2896 2900 2902 2905 2907 2911 2914 2916 2918
2855 2865 2873 2881 2887 2893 2899 2905 2910 2914 2917 2918 2917 2914 2911 2912 2911 2910 2910 2909 2907 2904 2901 2897 2896 2896 2896 2896 2895 2894 2892 2890 2888 2885 2883 2883 2880 2879 2879 2880 2881 2884 2887 2891 2895 2898 2901 2903 2905 2908 2910 2912 2915 2917
2860 2869 2878 2884 2890 2896 2902 2907 2910 2914 2916 2915 2913 2911 2910 2909 2909 2908 2907 2904 2902 2900 2898 2897 2894 2894 2893 2893 2892 2891 2890 2888 2885 2885 2884 2881 2879 2878 2878 2880 2883 2886 2889 2893 2896 2898 2900 2902 2904 2907 2909 2912 2914 2916
2867 2874 2880 2888 2895 2900 2904 2908 2911 2913 2915 2912 2910 2909 2908 2907 2906 2905 2903 2901 2898 2897 2896 2896 2894 2894 2892 2891 2890 2889 2887 2885 2884 2882 2880 2878 2876 2878 2880 2882 2885 2887 2890 2893 2896 2898 2900 2902 2904 2906 2908 2910 2911 2913
2879 2882 2888 2893 2898 2902 2906 2909 2912 2913 2910 2908 2908 2907 2906 2905 2903 2901 2899 2897 2896 2895 2894 2894 2893 2892 2891 2890 2888 2885 2884 2882 2880 2878 2876 2874 2873 2874 2877 2881 2885 2888 2891 2893 2895 2897 2899 2901 2903 2905 2907 2908 2909 2910
2887 2890 2894 2898 2903 2907 2910 2912 2912 2909 2907 2906 2905 2903 2901 2900 2899 2898 2896 2894 2893 2892 2892 2891 2890 2887 2887 2885 2885 2883 2881 2876 2874 2873 2872 2871 2871 2873 2876 2880 2884 2888 2890 2893 2895 2897 2899 2901 2903 2904 2905 2906 2907 2907
2898 2901 2903 2905 2909 2911 2911 2911 2910 2908 2904 2904 2901 2900 2899 2898 2896 2894 2891 2890 2888 2888 2887 2885 2884 2884 2883 2883 2881 2880 2877 2872 2870 2869 2868 2868 2869 2872 2876 2880 2884 2887 2890 2893 2895 2896 2898 2899 2900 2902 2902 2903 2903 2903
2904 2906 2908 2909 2911 2910 2910 2908 2907 2905 2903 2901 2900 2898 2896 2894 2892 2889 2887 2885 2883 2881 2880 2880 2879 2880 2879 2878 2877 2876 2874 2870 2867 2866 2866 2866 2868 2871 2875 2879 2883 2886 2889 2891 2893 2894 2896 2897 2898 2899 2899 2899 2899 2899
2907 2907 2910 2909 2909 2908 2907 2906 2904 2902 2901 2898 2896 2894 2891 2888 2887 2885 2883 2881 2878 2877 2876 2876 2876 2875 2874 2874 2873 2873 2871 2868 2866 2865 2865 2866 2868 2872 2876 2879 2882 2885 2888 2889 2891 2892 2893 2894 2895 2895 2895 2895 2895 2895
2907 2907 2907 2907 2906 2904 2904 2901 2900 2899 2898 2895 2892 2890 2888 2885 2883 2882 2879 2876 2875 2874 2873 2872 2872 2871 2870 2870 2870 2869 2868 2867 2865 2865 2865 2866 2868 2872 2875 2878 2881 2883 2885 2886 2888 2889 2890 2890 2891 2891 2891 2890 2890 2890
2905 2905 2903 2903 2902 2901 2899 2898 2897 2896 2894 2892 2890 2887 2885 2882 2880 2877 2874 2872 2871 2869 2869 2868 2868 2867 2867 2866 2866 2866 2865 2865 2864 2864 2865 2867 2868 2871 2874 2876 2879 2880 2882 2883 2885 2886 2886 2886 2887 2887 2887 2886 2886 2885
2904 2902 2901 2898 2897 2897 2895 2894 2893 2892 2890 2888 2886 2883 2881 2878 2876 2873 2870 2868 2866 2864 2863 2863 2862 2862 2862 2861 2861 2861 2861 2861 2862 2862 2864 2865 2867 2869 2871 2873 2875 2877 2879 2880 2881 2882 2882 2882 2882 2882 2882 2882 2881 2880
2899 2898 2898 2895 2894 2894 2892 2891 2889 2887 2885 2883 2881 2878 2876 2874 2872 2869 2867 2865 2863 2861 2859 2858 2857 2856 2856 2855 2856 2856 2856 2856 2858 2859 2861 2863 2865 2866 2868 2870 2872 2874 2875 2876 2877 2877 2878 2878 2879 2879 2878 2878 2876 2875
2896 2894 2893 2892 2891 2889 2887 2886 2884 2882 2880 2878 2876 2873 2872 2869 2866 2864 2862 2861 2860 2858 2856 2854 2852 2850 2849 2849 2850 2851 2852 2852 2853 2856 2858 2859 2860 2862 2864 2866 2868 2870 2871 2871 2872 2873 2874 2875 2875 2874 2874 2872 2871 2869
2891 2890 2889 2888 2886 2884 2881 2880 2878 2876 2874 2871 2870 2868 2866 2864 2860 2860 2858 2856 2854 2853 2851 2850 2848 2846 2845 2845 2845 2846 2847 2848 2849 2851 2853 2855 2857 2859 2860 2862 2863 2864 2866 2867 2868 2869 2870 2870 2870 2869 2868 2867 2865 2863
2887 2885 2884 2882 2880 2877 2875 2873 2871 2869 2867 2865 2862 2860 2859 2855 2854 2852 2850 2849 2847 2846 2845 2845 2844 2842 2841 2841 2841 2842 2843 2844 2846 2847 2849 2850 2852 2854 2855 2856 2858 2860 2862 2863 2864 2865 2865 2865 2865 2864 2863 2861 2859 2857
2881 2879 2876 2874 2872 2870 2869 2866 2863 2861 2858 2856 2852 2848 2847 2846 2845 2842 2839 2840 2839 2838 2837 2836 2836 2836 2836 2836 2837 2837 2839 2840 2841 2843 2844 2845 2847 2849 2850 2852 2854 2856 2858 2859 2859 2860 2860 2860 2859 2859 2857 2855 2853 2851
2874 2870 2867 2865 2862 2861 2857 2855 2853 2850 2847 2844 2842 2837 2834 2833 2832 2831 2830 2829 2828 2828 2827 2827 2827 2827 2828 2828 2830 2831 2832 2834 2835 2837 2839 2841 2842 2844 2846 2848 2850 2852 2853 2854 2854 2855 2855 2854 2854 2852 2851 2849 2846 2844
2865 2863 2859 2855 2853 2852 2849 2845 2841 2839 2837 2834 2831 2829 2826 2824 2822 2822 2818 2819 2819 2818 2817 2818 2818 2818 2819 2820 2820 2821 2823 2826 2827 2830 2833 2835 2837 2839 2841 2843 2845 2846 2847 2848 2849 2849 2849 2848 2847 2846 2844 2842 2840 2838
2857 2855 2852 2848 2845 2843 2841 2838 2833 2828 2827 2825 2822 2819 2817 2816 2815 2813 2812 2811 2811 2810 2810 2809 2809 2809 2810 2811 2812 2815 2817 2819 2821 2823 2826 2829 2832 2834 2836 2838 2839 2841 2842 2843 2843 2843 2842 2841 2840 2839 2838 2836 2834 2832